Miscellaneous Local Product
Issued by NWS North Platte, NE

Home | Current Version | Previous Version | Text Only | Print | Product List | Glossary On
Versions: 1 2 3 4 5 6 7 8 9 10 11 12 13 14 15 16 17 18 19 20 21 22 23 24 25 26 27 28 29 30 31 32 33 34 35 36 37 38 39 40 41 42 43 44 45 46 47 48 49 50
000
AXUS43 KLBF 040510
MISLBF


WESTERN AND NORTH CENTRAL NEBRASKA HOURLY WEATHER ROUNDUP
NATIONAL WEATHER SERVICE NORTH PLATTE NE
1200 AM CDT MON MAY 04 2015

***STATIONS NOT REPORTING VARIABLES SUCH AS SKY/WEATHER OR
PRESSURE ARE PROVIDED BY THE NEBRASKA DEPARTMENT OF
ROADS...RAWS...AND APRS NETWORKS...AND ARE NOT UNDER
NATIONAL WEATHER SERVICE QUALITY CONTROL***

...OBSERVATIONS IN AND NEAR THE EASTERN PANHANDLE OF NEBRASKA...

CITY           SKY/WX    TMP DP  RH WIND       PRES   REMARKS
PINE RIDGE     CLOUDY    48  37  65 E8        30.07R
CHADRON        MOCLDY    50  39  66 E3        30.05R
ALLIANCE       CLOUDY    54  38  54 E9        30.06R
SIDNEY         MOCLDY    55  40  56 NE12      30.05S
WHITECLAY        N/A     55  31  39 E9          N/A
CRESCENT LAKE    N/A     54  39  56 E6          N/A
BIG SPRINGS      N/A     59  40  49 NE8         N/A
$$

...OBSERVATIONS IN NORTH CENTRAL NEBRASKA...

CITY           SKY/WX    TMP DP  RH WIND       PRES   REMARKS
VALENTINE      MOCLDY    56  30  37 NE10      30.06R
THEDFORD       MOCLDY    56  38  50 N8        30.05R
AINSWORTH      CLOUDY    58  34  40 NE10      30.06R
O`NEILL        CLEAR     60  38  44 NE10      30.02R
ORD            PTCLDY    62  37  39 N16G24    29.94R
BROKEN BOW     CLOUDY    62  38  40 NE17      29.96R
BROWNLEE         N/A     58  33  38 NE10        N/A
VALENTINE NWR    N/A     56  35  46 NE9G16      N/A
SPRINGVIEW       N/A     59  33  37 E5          N/A
HALSEY           N/A     56  38  51 N3          N/A
BREWSTER         N/A     63  39  42 NE10        N/A
ROSE             N/A     60  41  49 N10         N/A
NEWPORT          N/A     59  37  43 CALM        N/A
SARGENT          N/A     61  39  44 NE6         N/A
COMSTOCK         N/A     67  40  37 NE14        N/A
EWING            N/A     61  43  51 NE7         N/A
$$

...OBSERVATIONS IN SOUTHWEST NEBRASKA AND FAR NORTHEAST COLORADO...

CITY           SKY/WX    TMP DP  RH WIND       PRES   REMARKS
WRAY           FAIR      62  41  46 NE14      30.00R
IMPERIAL       CLOUDY    59  39  47 NE15      30.00R
OGALLALA       MOCLDY    59  39  47 NE9       30.04R
NORTH PLATTE   CLOUDY    58  40  51 NE12      29.99R
MCCOOK         CLOUDY    63  42  46 NE16      29.95R
LEXINGTON      MOCLDY    62  40  44 NE16G22   29.94R
PAXTON           N/A     58  42  55 N8          N/A
SUTHERLAND       N/A     53  37  55 NE6         N/A
GOTHENBURG       N/A     62  36  38 N12         N/A
CALLAWAY         N/A     59  41  52 NE13        N/A
$$

...NORTH PLATTE AREA...

CITY           SKY/WX    TMP DP  RH WIND       PRES   REMARKS
AIRPORT        CLOUDY    58  40  51 NE12      29.99R
DOWNTOWN         N/A     59  41  51 NE3G12      N/A
$$

...SOME WEATHER OBSERVATIONS FROM AROUND THE REGION...

CITY           SKY/WX    TMP DP  RH WIND       PRES   REMARKS
DENVER         PTCLDY    51  44  77 SW8       30.08R
LARAMIE        CLOUDY    42  39  89 SE9       30.12S
CHEYENNE       CLOUDY    49  43  80 N3        30.11S
SCOTTSBLUFF    MOCLDY    53  40  61 E8        30.06R
RAPID CITY     PTCLDY    49  34  56 NE12      30.08S
PIERRE         CLEAR     48  24  39 N8        30.05R
WINNER         FAIR      54  27  35 E6        30.05R
SIOUX FALLS    PTCLDY    55  32  41 N8        30.00R THUNDER
OMAHA          CLOUDY    68  56  65 N14       29.85R
GRAND ISLAND   PTCLDY    64  42  44 NE21G28   29.89R
KANSAS CITY    CLOUDY    71  58  63 S14       29.92R
WICHITA        CLOUDY    68  54  60 S15       29.92R
HAYS           CLOUDY    73  46  38 NW24      29.87R
LIBERAL        CLOUDY    64  52  63 NE6       29.96R
GOODLAND       CLOUDY    63  48  58 NW17      30.01R
$$



USA.gov is the U.S. government's official web portal to all federal, state and local government web resources and services.